Погода Карасу

Погода Карасу : погода сейчас, прогноз погоды и архив. Всё, что Вы хотите узнать о погоде Карасу!

Поиск расширенной информации на нашем сайте:

Другие новости

Новости СМИ2

Главная страница сайта

Новости сайта

03.07.2017

Напоминаем, что на нашем специализированном сайте Метеоцентр.Азия вы можете получить высокодетализированные автоматические прогнозы погоды по пунктам России, СНГ и мира в авиационном формате (включающие направление и скорость ветра, видимость, явления погоды, количество и форму облачности, нижнюю и верхнюю границу облачности).


Погода Карасу - сегодня

Время (UTC), дата Ветер
(°,м/с) 
Видим.   Явления Облачность Т
(°С)
Тd
(°С)
f(%) Тe
(°С)
Pmin
(гПа)
dP
(гПа)
Po
(мм)
O2
(г/м3)
Тmin Tmax R s Состояние
почвы
18 21.09.17 160 (Ю) н/о    ясно 
+17.5 +7.4 51 +18  1011.3  -0.2  686  258    +28.7       
21 21.09.17 160 (Ю) н/о    ясно 
+13.5 +7.8 68 +15  1012.4  -0.3  686  262           
00 22.09.17 140 (ЮВ) н/о    ясно 
+11.3 +7.8 79 +12  1013.2  686  264           
03 22.09.17 тихо ()   20000 м    1/0 верхняя 
[Ci fib]
+19 +8.1 49 +19  1011.5  750  281           
06 22.09.17 290 (З) 20000 м    1/0 верхняя 
[Ci fib]
+25 +9.8 38 +28  1009.1  -0.3  686  252  +10         
09 22.09.17 270 (З) 20000 м    1/1 600 м 
[Sc]
+27.5 +8.5 30 +28  1007.6  -0.7  686  250           
12 22.09.17 340 (С) 20000 м    1/1 600 м 
[Sc]
+27.3 +9.7 33 +30  1007.9  0.3  686  250           
15 22.09.17 180 (Ю) н/о    ясно 
+15.4 +11.1 76 +22  1012.8  0.8  687  260    +28.1       
18 22.09.17 160 (Ю) н/о    6/6 600 м 
[Sc]
+15.4 +8.5 63 +17  1013.2  0.3  687  260           
21 22.09.17 110 (В) н/о    4/4 600 м 
[Sc]
+14.8 +8.6 66 +16  1013.5  687  261           
00 23.09.17 110 (В) н/о    4/4 600 м 
[Sc]
+15.2 +8.5 64 +17  1013.7  0.4  687  261           
03 23.09.17 140 (ЮВ) 20000 м    8/8 600 м 
[Sc]
+19.4 +8.6 50 +21  1012.6  0.3  750  281           
06 23.09.17 320 (СЗ) 20000 м    8/8 600 м кучево-дожд. 
[Cb calv]
+24.9 +7 32 +25  1011.2  0.4  688  253  +13.5         
09 23.09.17 270 (З) 20000 м    3/3 600 м кучево-дожд. 
[Cb calv]
+27.1 +4.1 23 +27  1009.7  -0.7  687  251           
12 23.09.17 230 (ЮЗ) 20000 м    3/3 600 м кучево-дожд. 
[Cb calv]
+26.5 +7.7 30 +27  1009.1  -0.8  687  251           
15 23.09.17 090 (В) н/о    9/9 600 м кучево-дожд. 
[Cb calv]
+19.4 +9.7 53 +22  1013.2  1.7  688  257    +28.4       
18 23.09.17 140 (ЮВ) н/о    9/9 600 м кучево-дожд. 
[Cb calv]
+16.8 +7.7 55 +18  1014.4  0.2  688  260    +28.4       
21 23.09.17 140 (ЮВ) н/о    6/6 600 м кучево-дожд. 
[Cb calv]
+16.2 +5.6 49 +17  1014.8  0.1  688  261           
00 24.09.17 160 (Ю) н/о    9/9 600 м кучево-дожд. 
[Cb calv]
+17.6 +2.9 37 +19  1014.8  0.4  688  260           
03 24.09.17 160 (Ю) 20000 м    8/8 600 м 
[Sc]
+17.4 +8.6 56 +19  1015.8  689  259           
06 24.09.17 270 (З) 20000 м    3/1 600 м средняя 
[Cu Sc|Ac trans]
+24.1 +0.6 21 +24  1013.8  0.1  689  255  +13.5         
09 24.09.17 270 (З) 20000 м    1/1 600 м 
[Cu Sc]
+25.3 +2.7 23 +25  1012.6  -0.7  689  253           
12 24.09.17 270 (З) 20000 м    1/1 600 м 
[Sc]
+24.7 +5.1 28 +25  1012.7  689  254           
15 24.09.17 140 (ЮВ) н/о    9/9 600 м 
[Sc]
+15.6 +10 69 +19  1017.1  1.2  690  261    +25.7       
18 24.09.17 180 (Ю) н/о    9/9 600 м 
[Sc]
+15.9 +9.2 64 +19  1016.8  -0.1  690  261    +25.7       
Время (UTC), дата Ветер
(°,м/с) 
Видим.   Явления Облачность Т
(°С)
Тd
(°С)
f(%) Тe
(°С)
Pmin
(гПа)
dP
(гПа)
Po
(мм)
O2
(г/м3)
Тmin Tmax R s Состояние
почвы

Для получения пояснительной информации подведите курсор к названию столбца.

ПОГОДА Карасу - архив

Всё, что Вы хотите узнать о погоде Карасу - удобно и подробно!

Выберите нужную дату (начиная с 1 января 2015* года) и нажмите кнопку "Найти".
Будут отображены архивные сводки погоды по пункту Карасу, начиная с указанной даты.


Отображать данные в формате CSV (для использования в таблицах Excel)


Внимание! Наш архив погоды предназначен исключительно для личного некоммерческого использования в познавательных целях. Если Вам необходимы официальные справки о состоянии погоды (для производственных, юридических, коммерческих и т.п. целей), обращайтесь в органы Росгидромета.

*Примечание: данная дата относится к архиву по метеостанциям СССР (Россия, СНГ, Балтия).
Архив по метеостанциям Зарубежной Европы и Азии (кроме Китая) хранится 10 дней, по другим регионам земного шара (Китай, Африка, Америка, Австралия, Океания) - 1 день.

Карасу - район местоположения метеостанции


Название, широта, долгота, высота метеостанции:
Карасу 40.7°ш. 72.9°д. 865 м над ур. моря [Кыргызстан]

Дополнительная информация

В oтличие oт бoльшинства пoгoдных сайтoв мы публикуем пoдрoбную метеoинфoрмацию в детальнoм прoфессиoнальнoм фoрмате.

Характеристики температуры и влажнoсти вoздуха измеряются на высoте 2 м в тени вдали oт зданий и деревьев.
Скoрoсть ветра измеряется на высoте 10 м (на урoвне рoста челoвека скoрoсть ветра ниже в 1.5-2 раза). Если метеoстанция нахoдится в гoрoде или в лесу, тo скoрoсть ветра занижена на 2-4 м/с пo сравнению с oткрытым местoм. Скoрoсть ветра над акватoриями крупных рек и oзёр, а также на вершинах хoлмoв на 2-5 м/с выше, чем в oбычных услoвиях.
Атмoсфернoе давление в разных тoчках местнoсти мoжет значительнo oтличаться oт давления на метеoстанции, в зависимoсти oт услoвий рельефа (при пoдъёме на 10 м давление пoнижается примернo на 1 мм рт.ст.).